FW7537 Weather Reports


Display with metric or nautical units.
time (UTC)temp
F
wind
direction
speed
MPH
gust
MPH
rain 1hr
in
rain 24hr
in
rain mn
in
humidity
%
barometer
mb
20260506044521 45 141 0.0 0.0 0.00 0.56 0.45 86 1012.8
20260506043019 45 141 0.0 1.0 0.00 0.56 0.45 87 1012.6
20260506041520 46 141 0.0 0.0 0.00 0.56 0.45 86 1012.6
20260506040017 46 141 0.0 0.0 0.00 0.59 0.45 85 1012.6
20260506034516 46 141 0.0 2.0 0.00 0.59 0.45 84 1012.5
20260506033014 47 141 0.0 2.0 0.00 0.59 0.45 83 1012.4
20260506031512 47 141 0.0 1.0 0.00 0.59 0.45 82 1011.9
20260506030012 48 141 0.0 2.0 0.00 0.65 0.45 81 1011.5
20260506024511 49 141 0.0 3.0 0.00 0.65 0.45 79 1011.1
20260506023011 50 141 0.0 3.0 0.00 0.65 0.45 79 1011.0
20260506021510 50 140 1.0 4.0 0.00 0.65 0.45 79 1011.0
20260506020009 50 196 1.0 3.0 0.00 0.69 0.45 78 1010.8
20260506014509 49 196 1.0 2.0 0.00 0.69 0.45 76 1010.7
20260506013010 49 196 0.0 2.0 0.00 0.69 0.45 76 1010.6
20260506011508 50 196 0.0 0.0 0.00 0.69 0.45 75 1010.7
20260506010010 51 196 0.0 0.0 0.00 0.69 0.45 73 1010.5
20260506004511 54 196 0.0 3.0 0.00 0.69 0.45 69 1010.6
20260506003007 56 196 0.0 1.0 0.00 0.69 0.45 67 1010.8
20260506001505 56 197 0.0 2.0 0.00 0.69 0.45 62 1011.0
20260506000005 55 214 2.0 4.0 0.00 0.69 0.45 62 1010.9
20260505234504 55 199 1.0 4.0 0.00 0.69 0.45 61 1010.9
20260505233002 55 259 3.0 6.0 0.00 0.69 0.45 60 1011.0
20260505231502 55 251 2.0 8.0 0.00 0.69 0.45 62 1011.1
20260505230001 54 232 2.0 7.0 0.00 0.69 0.45 66 1011.2
20260505224502 55 250 2.0 5.0 0.00 0.69 0.45 62 1011.2
20260505223100 55 254 3.0 7.0 0.00 0.69 0.45 62 1011.4
20260505221603 54 254 4.0 9.0 0.00 0.69 0.45 66 1011.5
20260505214600 54 256 5.0 9.0 0.00 0.69 0.45 63 1012.0
20260505213058 53 292 5.0 9.0 0.00 0.69 0.45 66 1012.0
20260505211556 53 260 3.0 8.0 0.00 0.69 0.45 68 1012.0
20260505210055 53 248 4.0 8.0 0.00 0.72 0.45 69 1011.9
20260505204555 54 250 4.0 8.0 0.00 0.72 0.45 66 1011.9
20260505203117 57 269 2.0 7.0 0.00 0.72 0.45 65 1011.9
20260505201600 55 279 1.0 4.0 0.00 0.72 0.45 70 1011.9
20260505200052 50 269 2.0 9.0 0.01 0.72 0.45 77 1011.9
20260505194543 49 290 7.0 10.0 0.01 0.72 0.45 77 1011.9
20260505193038 48 279 5.0 8.0 0.01 0.72 0.45 80 1011.8
20260505191536 48 288 4.0 9.0 0.01 0.72 0.45 83 1011.8
20260505190035 47 286 5.0 9.0 0.00 0.72 0.44 84 1011.9
20260505184535 46 286 6.0 8.0 0.00 0.72 0.44 86 1011.6
20260505183028 45 295 4.0 6.0 0.00 0.72 0.44 89 1011.7
20260505181530 44 282 3.0 9.0 0.00 0.72 0.44 87 1011.8
20260505180023 45 285 5.0 9.0 0.00 0.77 0.44 87 1011.5
20260505174528 44 121 0.0 2.0 0.00 0.77 0.44 86 1011.3
20260505173016 42 169 0.0 2.0 0.00 0.77 0.44 91 1011.1
20260505171514 41 169 0.0 2.0 0.01 0.77 0.44 90 1010.9
20260505170018 41 169 0.0 2.0 0.02 0.77 0.44 89 1010.8
20260505164510 43 96 0.0 2.0 0.03 0.77 0.44 86 1010.6
20260505163012 44 94 0.0 2.0 0.04 0.77 0.44 92 1010.5
20260505161505 43 90 0.0 2.0 0.04 0.76 0.43 92 1010.4
20260505153104 38 55 0.0 0.0 0.04 0.73 0.40 95 1010.3
20260505151603 38 30 0.0 2.0 0.03 0.72 0.39 92 1010.2
20260505124540 35 333 0.0 1.0 0.02 0.66 0.30 93 1008.7
20260505123039 34 333 0.0 0.0 0.03 0.66 0.30 94 1008.4
20260505121541 34 333 0.0 2.0 0.03 0.65 0.28 95 1008.5
20260505120043 34 333 0.0 0.0 0.02 0.64 0.28 94 1008.2
20260505114539 34 333 0.0 2.0 0.03 0.64 0.28 94 1008.3
20260505113040 34 333 0.0 0.0 0.03 0.63 0.27 93 1008.4
20260505111541 34 333 0.0 0.0 0.03 0.62 0.26 93 1008.5
20260505101534 33 330 1.0 3.0 0.08 0.59 0.23 92 1008.5
20260505100030 34 330 0.0 2.0 0.08 0.56 0.20 92 1008.8
20260505094529 34 330 0.0 1.0 0.09 0.55 0.19 94 1008.6
20260505093031 33 330 0.0 1.0 0.08 0.52 0.16 92 1008.8
20260505091528 34 330 0.0 0.0 0.08 0.51 0.15 91 1009.2
20260505090025 34 330 0.0 1.0 0.06 0.48 0.12 92 1009.0
20260505084524 34 330 0.0 2.0 0.05 0.46 0.10 92 1008.8
20260505083024 35 330 0.0 0.0 0.03 0.43 0.07 91 1008.8
20260505081526 35 330 0.0 2.0 0.03 0.43 0.07 87 1008.9
20260505080016 36 330 0.0 1.0 0.06 0.42 0.06 86 1009.3
20260505074517 36 330 0.0 0.0 0.05 0.40 0.04 86 1009.2
20260505073016 35 330 0.0 1.0 0.06 0.40 0.04 88 1009.3
20260505071510 37 330 0.0 1.0 0.07 0.40 0.04 85 1009.3
20260505070007 40 330 0.0 1.0 0.04 0.36 0.36 83 1009.1
20260505064509 39 330 0.0 2.0 0.05 0.35 0.35 86 1009.0
20260505063005 38 330 0.0 1.0 0.04 0.34 0.34 84 1009.1
20260505061505 39 330 0.0 2.0 0.04 0.33 0.33 86 1009.1
20260505060016 39 330 0.0 1.0 0.03 0.32 0.32 87 1009.4